Regional Weather Roundup
Issued by NWS Sterling, VA

Home | Current Version | Previous Version | Text Only | Print | Product List | Glossary Off
Versions: 1 2 3 4 5 6 7 8 9 10 11 12 13 14 15 16 17 18 19 20 21 22 23 24 25 26 27 28 29 30 31 32 33 34 35 36 37 38 39 40 41 42 43 44 45 46 47 48 49 50

000
ASUS41 KLWX 211610
RWRLWX

REGIONAL WEATHER ROUNDUP
NATIONAL WEATHER SERVICE BALTIMORE MD/WASHINGTON DC
1200 PM EDT SUN SEP 21 2014

Note: "FAIR" indicates few or no clouds below 12,000 feet
with no significant weather and/or obstructions to visibility.
 TC=TEMPERATURE CELSIUS

 * =Non NWS site. Station does not report precipitation (e.g. rain,
    snow, etc.), thunder, or fog.

DCZ001-MDZ009-015-VAZ040>042-051-053>054-211700-
WASHINGTON METRO

CITY           SKY/WX    TMP DP  RH WIND       PRES   REMARKS
WASHINGTON NAT PTSUNNY   76  61  59 E3        29.83F
DULLES         MOSUNNY   75  60  59 S6        29.83F
ANDREWS AFB    MOSUNNY   75  64  67 VRB2      29.83F
QUANTICO       MOSUNNY   73  63  70 S6        29.84F
COLLEGE PARK*  MOSUNNY   75  63  64 CALM      29.82F
LEESBURG*      SUNNY     77  64  65 S7        29.83F
MANASSAS*      SUNNY     75  63  64 S6        29.83F
GAITHERSBURG*  SUNNY     75  63  64 S7        29.86F

$$

MDZ006>007-011-014-211700-
BALTIMORE METRO

CITY           SKY/WX    TMP DP  RH WIND       PRES   REMARKS
BWI AIRPORT    PTSUNNY   75  63  66 CALM      29.82F
MD SCIENCE CTR   N/A     73  61  65 MISG      29.83F
MARTIN STATE   MOSUNNY   72  66  83 CALM      29.84F
ANNAPOLIS      PTSUNNY   73  64  73 CALM      29.82F
FORT MEADE*    MOSUNNY   75  63  64 W5        29.85F

$$

MDZ012-015-019>023-211700-
MARYLAND EASTERN SHORE

CITY           SKY/WX    TMP DP  RH WIND       PRES   REMARKS
OCEAN CITY     CLOUDY    77  70  79 NE8       29.78F
SALISBURY      CLOUDY    77  69  76 N5        29.78F
BAY BRIDGE AP*   N/A     70  63  78 N6        29.82F
CAMBRIDGE*     CLOUDY    72  68  88 N5        29.80F
EASTON*        CLOUDY    72  72 100 CALM      29.85

$$

MDZ017>025-211700-
SOUTHERN MARYLAND

CITY           SKY/WX    TMP DP  RH WIND       PRES   REMARKS
PATUXENT RIVER PTSUNNY   78  65  63 N8        29.81F
ST INIGOES     PTSUNNY   77  64  64 VRB5      29.80F
LEONARDTOWN*   PTSUNNY   73  63  68 CALM      29.82F

$$

MDZ003>005-211700-
NORTH CENTRAL MARYLAND

CITY           SKY/WX    TMP DP  RH WIND       PRES   REMARKS
FREDERICK*     SUNNY     81  64  57 SE3       29.84F
HAGERSTOWN APT SUNNY     76  59  55 SE8       29.80F
WESTMINSTER*   SUNNY    N/A N/A N/A SE5       29.83F

$$

MDZ501>502-211700-
WESTERN MARYLAND

CITY           SKY/WX    TMP DP  RH WIND       PRES   REMARKS
OAKLAND*       CLOUDY    64 N/A N/A SW10G16   29.88F
CUMBERLAND*    MOSUNNY   82  59  44 E7        29.82F

$$

VAZ025>031-211700-
SHENANDOAH VALLEY

CITY           SKY/WX    TMP DP  RH WIND       PRES   REMARKS
WINCHESTER*    SUNNY     81  57  44 S7        29.81F
STAUNTON*      SUNNY     79  57  46 CALM      29.87F

$$

WVZ021-048>050-054>055-211700-
EASTERN WEST VIRGINIA PANHANDLE

CITY           SKY/WX    TMP DP  RH WIND       PRES   REMARKS
MARTINSBURG    SUNNY     79  58  48 VRB6      29.80F
PETERSBURG*    PTSUNNY   82  57  42 SW3       29.80F

$$

VAZ036>039-050-211700-
CENTRAL FOOTHILLS

CITY           SKY/WX    TMP DP  RH WIND       PRES   REMARKS
CHARLOTTESVILL SUNNY     80  61  52 VRB7      29.83F
ORANGE*        SUNNY     79  61  53 E6        29.83F

$$

VAZ055>057-211700-
NORTH AND CENTRAL PIEDMONT

CITY           SKY/WX    TMP DP  RH WIND       PRES   REMARKS
FREDERICKSBRG* MOSUNNY   77  63  62 CALM      29.83F
STAFFORD*      MOSUNNY   74  62  65 S3        29.87F

$$

NCZ024-NYZ072-PAZ021-071-VAZ022-071-211700-
OTHER REGIONAL OBSERVATIONS

CITY           SKY/WX    TMP DP  RH WIND       PRES   REMARKS
NEW YORK CITY  CLOUDY    72  67  84 CALM      29.84F HAZE
PHILADELPHIA   CLOUDY    72  65  78 E5        29.82F
PITTSBURGH     CLOUDY    72  65  78 SW10      29.76F
ROANOKE        MOSUNNY   77  61  57 W12       29.90F
RICHMOND       PTSUNNY   78  61  55 NW8       29.84F
RALEIGH        PTSUNNY   77  62  59 VRB3      29.90F

$$

ANZ530>537-211700-
MARINE OBSERVATIONS

STATION/POSITION TIME  TEMP    WIND        PRES
                       AIR SEA DIR/SP/G
                 (UTC) (F)     (DEG/KT/KT) (MB)
THOMAS PT LIGHT  1600   68 74   30/  6/  7 1010.7F
BALT KEY BRIDGE  1600   68     280/  3/  4 1010.2F
COVE POINT       1600   70     350/ 10/ 12 1009.6F
LEWISETTA        1600   71 74  320/ 10/ 12 1009.5S
SOLOMONS ISLAND  1600      76                N/A
PINEY POINT      1600          320/  8/  9   N/A

$$




USA.gov is the U.S. government's official web portal to all federal, state and local government web resources and services.